Location: Marcé
(47.5801°N, 0.3280°W)
Time: 21:06:57
(UTC+01:00)

Vanguard 1 - Pass Details

Date: 08 December 2021
Orbit: 652 x 3830 km, 34.2° (Epoch: 16 January)

Event Time Altitude Azimuth Distance (km) Brightness Sun altitude
Rises 05:15:17 0° 277° (W) 7,956 - -32.9°
Reaches altitude 10° 05:21:24 10° 271° (W) 6,929 - -31.9°
Exits shadow 05:34:39 32° 242° (WSW) 4,895 13.1 -29.6°
Maximum altitude 05:40:33 37° 215° (SW) 4,328 13.0 -28.6°
Drops below altitude 10° 05:54:11 10° 155° (SSE) 4,969 14.0 -26.3°
Sets 05:57:44 0° 147° (SSE) 5,580 14.5 -25.7°
